Year,Month,Day,Hour,Minute,Value (Times are PST for temperature in C)
2020,01,27,08,45,3.80
2020,01,27,08,46,3.90
2020,01,27,08,47,3.90
2020,01,27,08,48,3.90
2020,01,27,08,49,4.00
2020,01,27,08,50,4.00
2020,01,27,08,51,4.00
2020,01,27,08,52,4.10
2020,01,27,08,53,4.10
2020,01,27,08,54,4.10
2020,01,27,08,55,4.10
2020,01,27,08,56,4.20
2020,01,27,08,57,4.20
2020,01,27,08,58,4.20
2020,01,27,08,59,4.20
2020,01,27,09,00,4.20
2020,01,27,09,01,4.20
2020,01,27,09,02,4.30
2020,01,27,09,03,4.30
2020,01,27,09,04,4.30
2020,01,27,09,05,4.40
2020,01,27,09,06,4.40
2020,01,27,09,07,4.50
2020,01,27,09,08,4.50
2020,01,27,09,09,4.60
2020,01,27,09,10,4.60
2020,01,27,09,11,4.60
2020,01,27,09,12,4.70
2020,01,27,09,13,4.70
2020,01,27,09,14,4.70
2020,01,27,09,15,4.80
2020,01,27,09,16,4.80
2020,01,27,09,17,4.90
2020,01,27,09,18,4.90
2020,01,27,09,19,4.90
2020,01,27,09,20,4.90
2020,01,27,09,21,5.00
2020,01,27,09,22,5.00
2020,01,27,09,23,5.00
2020,01,27,09,24,5.10
2020,01,27,09,25,5.10
2020,01,27,09,26,5.10
2020,01,27,09,27,5.10
2020,01,27,09,28,5.20
2020,01,27,09,29,5.20
2020,01,27,09,30,5.20
2020,01,27,09,31,5.30
2020,01,27,09,32,5.30
2020,01,27,09,33,5.40
2020,01,27,09,34,5.40
2020,01,27,09,35,5.40
2020,01,27,09,36,5.50
2020,01,27,09,37,5.50
2020,01,27,09,38,5.60
2020,01,27,09,39,5.60
2020,01,27,09,40,5.70
2020,01,27,09,41,5.70
2020,01,27,09,42,5.70
2020,01,27,09,43,5.70
2020,01,27,09,44,5.70
2020,01,27,09,45,5.70
2020,01,27,09,46,5.70
2020,01,27,09,47,5.80
2020,01,27,09,48,5.80
2020,01,27,09,49,5.80
2020,01,27,09,50,5.80
2020,01,27,09,51,5.80
2020,01,27,09,52,5.80
2020,01,27,09,53,5.80
2020,01,27,09,54,5.80
2020,01,27,09,55,5.80
2020,01,27,09,56,5.80
2020,01,27,09,57,5.80
2020,01,27,09,58,5.80
2020,01,27,09,59,5.80
2020,01,27,10,00,5.80
2020,01,27,10,01,5.80
2020,01,27,10,02,5.80
2020,01,27,10,03,5.80
2020,01,27,10,04,5.80
2020,01,27,10,05,5.90
2020,01,27,10,06,6.00
2020,01,27,10,07,6.10
2020,01,27,10,08,6.10
2020,01,27,10,09,6.20
2020,01,27,10,10,6.30
2020,01,27,10,11,6.40
2020,01,27,10,12,6.50
2020,01,27,10,13,6.50
2020,01,27,10,14,6.60
2020,01,27,10,15,6.60
2020,01,27,10,16,6.70
2020,01,27,10,17,6.70
2020,01,27,10,18,6.80
2020,01,27,10,19,6.80
2020,01,27,10,20,6.80
2020,01,27,10,21,6.80
2020,01,27,10,22,6.80
2020,01,27,10,23,6.80
2020,01,27,10,24,6.80
2020,01,27,10,25,6.80
2020,01,27,10,26,6.80
2020,01,27,10,27,6.80
2020,01,27,10,28,6.90
2020,01,27,10,29,6.90
2020,01,27,10,30,6.90
2020,01,27,10,31,6.90
2020,01,27,10,32,6.90
2020,01,27,10,33,7.00
2020,01,27,10,34,7.00
2020,01,27,10,35,7.00
2020,01,27,10,36,7.00
2020,01,27,10,37,7.00
2020,01,27,10,38,7.00
2020,01,27,10,39,7.00
2020,01,27,10,40,7.00
2020,01,27,10,41,7.00
2020,01,27,10,42,7.00
2020,01,27,10,43,7.00
2020,01,27,10,44,7.00
2020,01,27,10,45,7.10
2020,01,27,10,46,7.10
2020,01,27,10,47,7.20
2020,01,27,10,48,7.20
2020,01,27,10,49,7.20
2020,01,27,10,50,7.30
2020,01,27,10,51,7.30
2020,01,27,10,52,7.30
2020,01,27,10,53,7.30
2020,01,27,10,54,7.30
2020,01,27,10,55,7.30
2020,01,27,10,56,7.30
2020,01,27,10,57,7.20
2020,01,27,10,58,7.30
2020,01,27,10,59,7.30
2020,01,27,11,00,7.30
2020,01,27,11,01,7.20
2020,01,27,11,02,7.20
2020,01,27,11,03,7.20
2020,01,27,11,04,7.20
2020,01,27,11,05,7.10
2020,01,27,11,06,7.10
2020,01,27,11,07,7.10
2020,01,27,11,08,7.10
2020,01,27,11,09,7.10
2020,01,27,11,10,7.10
2020,01,27,11,11,7.10
2020,01,27,11,12,7.10
2020,01,27,11,13,7.20
2020,01,27,11,14,7.30
2020,01,27,11,15,7.40
2020,01,27,11,16,7.50
2020,01,27,11,17,7.60
2020,01,27,11,18,7.70
2020,01,27,11,19,7.80
2020,01,27,11,20,7.90
2020,01,27,11,21,7.90
2020,01,27,11,22,8.00
2020,01,27,11,23,7.90
2020,01,27,11,24,7.90
2020,01,27,11,25,8.00
2020,01,27,11,26,7.90
2020,01,27,11,27,7.90
2020,01,27,11,28,7.80
2020,01,27,11,29,7.80
2020,01,27,11,30,7.70
2020,01,27,11,31,7.70
2020,01,27,11,32,7.60
2020,01,27,11,33,7.60
2020,01,27,11,34,7.50
2020,01,27,11,35,7.50
2020,01,27,11,36,7.40
2020,01,27,11,37,7.30
2020,01,27,11,38,7.30
2020,01,27,11,39,7.30
2020,01,27,11,40,7.30
2020,01,27,11,41,7.30
2020,01,27,11,42,7.30
2020,01,27,11,43,7.30
2020,01,27,11,44,7.30
2020,01,27,11,45,7.30
2020,01,27,11,46,7.30
2020,01,27,11,47,7.30
2020,01,27,11,48,7.30
2020,01,27,11,49,7.30
2020,01,27,11,50,7.30
2020,01,27,11,51,7.30
2020,01,27,11,52,7.30
2020,01,27,11,53,7.30
2020,01,27,11,54,7.30
2020,01,27,11,55,7.30
2020,01,27,11,56,7.30
2020,01,27,11,57,7.30
2020,01,27,11,58,7.30
2020,01,27,11,59,7.30
2020,01,27,12,00,7.40
2020,01,27,12,01,7.30
2020,01,27,12,02,7.30
2020,01,27,12,03,7.40
2020,01,27,12,04,7.30
2020,01,27,12,05,7.30
2020,01,27,12,06,7.30
2020,01,27,12,07,7.40
2020,01,27,12,08,7.40
2020,01,27,12,09,7.40
2020,01,27,12,10,7.40
2020,01,27,12,11,7.40
2020,01,27,12,12,7.40
2020,01,27,12,13,7.40
2020,01,27,12,14,7.40
2020,01,27,12,15,7.40
2020,01,27,12,16,7.40
2020,01,27,12,17,7.40
2020,01,27,12,18,7.40
2020,01,27,12,19,7.40
2020,01,27,12,20,7.40
2020,01,27,12,21,7.40
2020,01,27,12,22,7.40
2020,01,27,12,23,7.40
2020,01,27,12,24,7.40
2020,01,27,12,25,7.50
2020,01,27,12,26,7.50
2020,01,27,12,27,7.50
2020,01,27,12,28,7.50
2020,01,27,12,29,7.50
2020,01,27,12,30,7.50
2020,01,27,12,31,7.50
2020,01,27,12,32,7.50
2020,01,27,12,33,7.50
2020,01,27,12,34,7.50
2020,01,27,12,35,7.50
2020,01,27,12,36,7.50
2020,01,27,12,37,7.50
2020,01,27,12,38,7.60
2020,01,27,12,39,7.60
2020,01,27,12,40,7.60
2020,01,27,12,41,7.60
2020,01,27,12,42,7.60
2020,01,27,12,43,7.60
2020,01,27,12,44,7.60
2020,01,27,12,45,7.60
2020,01,27,12,46,7.60
2020,01,27,12,47,7.60
2020,01,27,12,48,7.60
2020,01,27,12,49,7.60
2020,01,27,12,50,7.60
2020,01,27,12,51,7.60
2020,01,27,12,52,7.60
2020,01,27,12,53,7.60
2020,01,27,12,54,7.60
2020,01,27,12,55,7.70
2020,01,27,12,56,7.70
2020,01,27,12,57,7.70
2020,01,27,12,58,7.70
2020,01,27,12,59,7.70
2020,01,27,13,00,7.70
2020,01,27,13,01,7.70
2020,01,27,13,02,7.70
2020,01,27,13,03,7.70
2020,01,27,13,04,7.70
2020,01,27,13,05,7.70
2020,01,27,13,06,7.70
2020,01,27,13,07,7.70
2020,01,27,13,08,7.80
2020,01,27,13,09,7.80
2020,01,27,13,10,7.80
2020,01,27,13,11,7.80
2020,01,27,13,12,7.80
2020,01,27,13,13,7.80
2020,01,27,13,14,7.80
2020,01,27,13,15,7.80
2020,01,27,13,16,7.80
2020,01,27,13,17,7.80
2020,01,27,13,18,7.80
2020,01,27,13,19,7.80
2020,01,27,13,20,7.80
2020,01,27,13,21,7.90
2020,01,27,13,22,7.90
2020,01,27,13,23,7.90
2020,01,27,13,24,7.90
2020,01,27,13,25,7.90
2020,01,27,13,26,7.90
2020,01,27,13,27,7.90
2020,01,27,13,28,7.90
2020,01,27,13,29,7.90
2020,01,27,13,30,7.80
2020,01,27,13,31,7.80
2020,01,27,13,32,7.80
2020,01,27,13,33,7.90
2020,01,27,13,34,7.90
2020,01,27,13,35,7.90
2020,01,27,13,36,8.00
2020,01,27,13,37,8.00
2020,01,27,13,38,8.00
2020,01,27,13,39,8.10
2020,01,27,13,40,8.20
2020,01,27,13,41,8.20
2020,01,27,13,42,8.30
2020,01,27,13,43,8.40
2020,01,27,13,44,8.50
2020,01,27,13,45,8.50
2020,01,27,13,46,8.60
2020,01,27,13,47,8.60
2020,01,27,13,48,8.60
2020,01,27,13,49,8.60
2020,01,27,13,50,8.60
2020,01,27,13,51,8.50
2020,01,27,13,52,8.40
2020,01,27,13,53,8.40
2020,01,27,13,54,8.30
2020,01,27,13,55,8.20
2020,01,27,13,56,8.20
2020,01,27,13,57,8.10
2020,01,27,13,58,8.10
2020,01,27,13,59,8.10
2020,01,27,14,00,8.10
2020,01,27,14,01,8.00
2020,01,27,14,02,8.00
2020,01,27,14,03,8.00
2020,01,27,14,04,7.90
2020,01,27,14,05,7.90
2020,01,27,14,06,7.90
2020,01,27,14,07,7.90
2020,01,27,14,08,7.90
2020,01,27,14,09,7.90
2020,01,27,14,10,7.90
2020,01,27,14,11,7.90
2020,01,27,14,12,7.90
2020,01,27,14,13,7.80
2020,01,27,14,14,7.80
2020,01,27,14,15,7.80
2020,01,27,14,16,7.80
2020,01,27,14,17,7.80
2020,01,27,14,18,7.80
2020,01,27,14,19,7.80
2020,01,27,14,20,7.80
2020,01,27,14,21,7.90
2020,01,27,14,22,7.80
2020,01,27,14,23,7.80
2020,01,27,14,24,7.80
2020,01,27,14,25,7.80
2020,01,27,14,26,7.80
2020,01,27,14,27,7.80
2020,01,27,14,28,7.80
2020,01,27,14,29,7.80
2020,01,27,14,30,7.80
2020,01,27,14,31,7.80
2020,01,27,14,32,7.80
2020,01,27,14,33,7.80
2020,01,27,14,34,7.80
2020,01,27,14,35,7.80
2020,01,27,14,36,7.80
2020,01,27,14,37,7.80
2020,01,27,14,38,7.80
2020,01,27,14,39,7.80
2020,01,27,14,40,7.80
2020,01,27,14,41,7.80
2020,01,27,14,42,7.80
2020,01,27,14,43,7.80
2020,01,27,14,44,7.80
2020,01,27,14,45,7.70
2020,01,27,14,46,7.70
2020,01,27,14,47,7.70
2020,01,27,14,48,7.70
2020,01,27,14,49,7.70
2020,01,27,14,50,7.70
2020,01,27,14,51,7.70
2020,01,27,14,52,7.60
2020,01,27,14,53,7.60
2020,01,27,14,54,7.60
2020,01,27,14,55,7.60
2020,01,27,14,56,7.60
2020,01,27,14,57,7.60
2020,01,27,14,58,7.60
2020,01,27,14,59,7.60
2020,01,27,15,00,7.60
2020,01,27,15,01,7.60
2020,01,27,15,02,7.60
2020,01,27,15,03,7.60
2020,01,27,15,04,7.60
2020,01,27,15,05,7.60
2020,01,27,15,06,7.60
2020,01,27,15,07,7.60
2020,01,27,15,08,7.60
2020,01,27,15,09,7.60
2020,01,27,15,10,7.60
2020,01,27,15,11,7.60
2020,01,27,15,12,7.60
2020,01,27,15,13,7.60
2020,01,27,15,14,7.60
2020,01,27,15,15,7.60
2020,01,27,15,16,7.60
2020,01,27,15,17,7.60
2020,01,27,15,18,7.70
2020,01,27,15,19,7.70
2020,01,27,15,20,7.70
2020,01,27,15,21,7.70
2020,01,27,15,22,7.70
2020,01,27,15,23,7.70
2020,01,27,15,24,7.70
2020,01,27,15,25,7.60
2020,01,27,15,26,7.60
2020,01,27,15,27,7.60
2020,01,27,15,28,7.60
2020,01,27,15,29,7.60
2020,01,27,15,30,7.60
2020,01,27,15,31,7.60
2020,01,27,15,32,7.60
2020,01,27,15,33,7.60
2020,01,27,15,34,7.60
2020,01,27,15,35,7.60
2020,01,27,15,36,7.60
2020,01,27,15,37,7.60
2020,01,27,15,38,7.60
2020,01,27,15,39,7.60
2020,01,27,15,40,7.60
2020,01,27,15,41,7.60
2020,01,27,15,42,7.60
2020,01,27,15,43,7.60
2020,01,27,15,44,7.60
2020,01,27,15,45,7.50
2020,01,27,15,46,7.50
2020,01,27,15,47,7.50
2020,01,27,15,48,7.50
2020,01,27,15,49,7.50
2020,01,27,15,50,7.50
2020,01,27,15,51,7.40
2020,01,27,15,52,7.40
2020,01,27,15,53,7.40
2020,01,27,15,54,7.40
2020,01,27,15,55,7.40
2020,01,27,15,56,7.40
2020,01,27,15,57,7.40
2020,01,27,15,58,7.30
2020,01,27,15,59,7.30
2020,01,27,16,00,7.30
2020,01,27,16,01,7.30
2020,01,27,16,02,7.30
2020,01,27,16,03,7.30
2020,01,27,16,04,7.30
2020,01,27,16,05,7.30
2020,01,27,16,06,7.30
2020,01,27,16,07,7.30
2020,01,27,16,08,7.30
